SWA3847 KLAX-KSJC

Flight info

Callsign SWA3847
Flight time 0h 49m
Altitude 34000
Route SUMMR2 SCTRR TROXX SILCN6
Aircraft B737/M-SDE2E3FGHIRWXY/LB1

Departure

Time 2026-04-26 20:24
Airport Los Angeles International Airport (KLAX)

Arrival

Time 2026-04-26 21:13
Airport Norman Y. Mineta San Jose International Airport (KSJC)
Time Latitude Longitude Altitude Speed Heading
2026-04-26 19:55 33.94729 -118.40068 92 ft 0 kts 263°
2026-04-26 20:15 33.94731 -118.40050 91 ft 4 kts 264°
2026-04-26 20:15 33.94733 -118.40026 92 ft 4 kts 289°
2026-04-26 20:15 33.94718 -118.40012 91 ft 3 kts 358°
2026-04-26 20:15 33.94698 -118.40011 91 ft 0 kts 358°
2026-04-26 20:20 33.94703 -118.40011 92 ft 3 kts 358°
2026-04-26 20:20 33.94740 -118.40010 92 ft 8 kts
2026-04-26 20:20 33.94812 -118.40006 94 ft 12 kts 352°
2026-04-26 20:21 33.94852 -118.40066 94 ft 9 kts 308°
2026-04-26 20:21 33.94908 -118.40071 93 ft 9 kts 31°
2026-04-26 20:21 33.94924 -118.39999 92 ft 10 kts 83°
2026-04-26 20:21 33.94951 -118.39925 94 ft 4 kts 30°
2026-04-26 20:22 33.94952 -118.39924 94 ft 0 kts 29°
2026-04-26 20:22 33.94954 -118.39923 93 ft 2 kts 29°
2026-04-26 20:22 33.94985 -118.39911 92 ft 6 kts
2026-04-26 20:22 33.95037 -118.39921 92 ft 8 kts 335°
2026-04-26 20:23 33.95042 -118.39956 93 ft 4 kts 263°
2026-04-26 20:23 33.95033 -118.40039 94 ft 31 kts 263°
2026-04-26 20:23 33.94978 -118.40581 97 ft 98 kts 263°
2026-04-26 20:23 33.94884 -118.41588 222 ft 135 kts 263°
2026-04-26 20:24 33.94777 -118.42738 756 ft 142 kts 261°
2026-04-26 20:24 33.94648 -118.43954 1311 ft 152 kts 262°
2026-04-26 20:24 33.94507 -118.45311 1832 ft 180 kts 262°
2026-04-26 20:24 33.94340 -118.46930 2206 ft 210 kts 263°
2026-04-26 20:25 33.94226 -118.48804 2685 ft 236 kts 269°
2026-04-26 20:25 33.94201 -118.50147 3305 ft 238 kts 269°
2026-04-26 20:25 33.94120 -118.52812 4505 ft 245 kts 265°
2026-04-26 20:25 33.93943 -118.54841 5599 ft 244 kts 264°
2026-04-26 20:26 33.93761 -118.56895 6582 ft 248 kts 265°
2026-04-26 20:26 33.93584 -118.58974 7597 ft 251 kts 265°
2026-04-26 20:26 33.93412 -118.61089 8620 ft 256 kts 265°
2026-04-26 20:26 33.93243 -118.63241 9720 ft 259 kts 266°
2026-04-26 20:27 33.93079 -118.65424 10616 ft 269 kts 266°
2026-04-26 20:27 33.92900 -118.67799 10876 ft 301 kts 266°
2026-04-26 20:27 33.92701 -118.70419 11356 ft 322 kts 266°
2026-04-26 20:27 33.92491 -118.73119 11846 ft 327 kts 266°
2026-04-26 20:28 33.92277 -118.75854 11975 ft 329 kts 266°
2026-04-26 20:28 33.92063 -118.78590 11974 ft 328 kts 266°
2026-04-26 20:28 33.91847 -118.81329 11978 ft 328 kts 266°
2026-04-26 20:28 33.91662 -118.84036 11994 ft 329 kts 269°
2026-04-26 20:29 33.91712 -118.86815 12737 ft 334 kts 274°
2026-04-26 20:29 33.91837 -118.89607 13832 ft 335 kts 274°
2026-04-26 20:29 33.91954 -118.92418 14761 ft 339 kts 274°
2026-04-26 20:29 33.92053 -118.95285 15651 ft 345 kts 273°
2026-04-26 20:30 33.92142 -118.98202 16545 ft 352 kts 272°
2026-04-26 20:30 33.92372 -119.01152 17391 ft 358 kts 283°
2026-04-26 20:30 33.93318 -119.03944 18287 ft 364 kts 298°
2026-04-26 20:30 33.94657 -119.06558 19109 ft 369 kts 301°
2026-04-26 20:31 33.96060 -119.09166 19917 ft 373 kts 301°
2026-04-26 20:31 33.97466 -119.11807 20753 ft 376 kts 300°
2026-04-26 20:31 33.98864 -119.14487 21578 ft 379 kts 300°
2026-04-26 20:31 34.00266 -119.17191 22365 ft 383 kts 301°
2026-04-26 20:32 34.02029 -119.19631 23098 ft 393 kts 317°
2026-04-26 20:32 34.04242 -119.21607 23824 ft 398 kts 322°
2026-04-26 20:32 34.06526 -119.23535 24401 ft 403 kts 322°
2026-04-26 20:32 34.08844 -119.25472 24992 ft 407 kts 322°
2026-04-26 20:33 34.10145 -119.26563 25296 ft 409 kts 322°
2026-04-26 20:33 34.11133 -119.27396 25540 ft 411 kts 321°
2026-04-26 20:33 34.13482 -119.29387 26122 ft 414 kts 321°
2026-04-26 20:33 34.15843 -119.31405 26707 ft 418 kts 321°
2026-04-26 20:34 34.18223 -119.33450 27263 ft 421 kts 321°
2026-04-26 20:34 34.19458 -119.34514 27547 ft 423 kts 320°
2026-04-26 20:34 34.21859 -119.36585 28090 ft 426 kts 321°
2026-04-26 20:34 34.24284 -119.38681 28579 ft 430 kts 321°
2026-04-26 20:35 34.26729 -119.40794 29065 ft 434 kts 321°
2026-04-26 20:35 34.29191 -119.42923 29568 ft 437 kts 321°
2026-04-26 20:35 34.31666 -119.45064 30144 ft 437 kts 320°
2026-04-26 20:35 34.34134 -119.47199 30749 ft 434 kts 320°
2026-04-26 20:36 34.36578 -119.49316 31366 ft 431 kts 320°
2026-04-26 20:36 34.39013 -119.51427 31912 ft 430 kts 319°
2026-04-26 20:36 34.41445 -119.53540 32424 ft 430 kts 319°
2026-04-26 20:36 34.43841 -119.55711 32898 ft 429 kts 317°
2026-04-26 20:37 34.46196 -119.57925 33410 ft 428 kts 316°
2026-04-26 20:37 34.48506 -119.60127 33945 ft 427 kts 316°
2026-04-26 20:37 34.50852 -119.62370 33956 ft 430 kts 316°
2026-04-26 20:38 34.55552 -119.66843 33973 ft 426 kts 316°
2026-04-26 20:38 34.60218 -119.71260 33997 ft 426 kts 316°
2026-04-26 20:39 34.64901 -119.75695 34003 ft 427 kts 316°
2026-04-26 20:39 34.69587 -119.80136 33998 ft 428 kts 316°
2026-04-26 20:40 34.74285 -119.84595 34008 ft 429 kts 316°
2026-04-26 20:40 34.78990 -119.89068 34013 ft 430 kts 317°
2026-04-26 20:41 34.83703 -119.93555 34004 ft 430 kts 317°
2026-04-26 20:41 34.88383 -119.98015 34013 ft 429 kts 317°
2026-04-26 20:42 34.93076 -120.02497 34016 ft 428 kts 317°
2026-04-26 20:42 34.97760 -120.06977 34026 ft 428 kts 317°
2026-04-26 20:43 35.02446 -120.11465 34034 ft 428 kts 317°
2026-04-26 20:43 35.07138 -120.15966 34035 ft 429 kts 317°
2026-04-26 20:44 35.11821 -120.20465 34047 ft 429 kts 317°
2026-04-26 20:44 35.16514 -120.24979 34044 ft 429 kts 317°
2026-04-26 20:45 35.21248 -120.29400 34046 ft 431 kts 319°
2026-04-26 20:45 35.26080 -120.33777 34038 ft 432 kts 319°
2026-04-26 20:46 35.30908 -120.38170 34047 ft 432 kts 319°
2026-04-26 20:46 35.35736 -120.42591 34036 ft 433 kts 319°
2026-04-26 20:47 35.39738 -120.46265 34041 ft 432 kts 319°
2026-04-26 20:47 35.44548 -120.50688 34032 ft 432 kts 319°
2026-04-26 20:48 35.50139 -120.55836 34056 ft 431 kts 319°
2026-04-26 20:48 35.55001 -120.60150 34059 ft 432 kts 322°
2026-04-26 20:49 35.59228 -120.63450 34066 ft 433 kts 324°
2026-04-26 20:49 35.64339 -120.67360 34084 ft 432 kts 323°
2026-04-26 20:50 35.69419 -120.71308 34065 ft 431 kts 323°
2026-04-26 20:50 35.74473 -120.75279 34059 ft 430 kts 323°
2026-04-26 20:51 35.79506 -120.79248 34049 ft 430 kts 323°
2026-04-26 20:51 35.84542 -120.83223 34049 ft 429 kts 323°
2026-04-26 20:52 35.89537 -120.87173 34013 ft 429 kts 323°
2026-04-26 20:52 35.94562 -120.91151 33838 ft 430 kts 323°
2026-04-26 20:52 35.97089 -120.93155 33078 ft 431 kts 323°
2026-04-26 20:53 35.99618 -120.95159 32311 ft 430 kts 323°
2026-04-26 20:53 36.02095 -120.97204 31597 ft 425 kts 321°
2026-04-26 20:53 36.04447 -120.99369 31011 ft 419 kts 319°
2026-04-26 20:53 36.06741 -121.01583 30414 ft 415 kts 319°
2026-04-26 20:54 36.08999 -121.03787 29790 ft 411 kts 319°
2026-04-26 20:54 36.11241 -121.05968 29148 ft 408 kts 319°
2026-04-26 20:54 36.13461 -121.08110 28558 ft 403 kts 319°
2026-04-26 20:54 36.15665 -121.10225 28014 ft 398 kts 320°
2026-04-26 20:55 36.17848 -121.12312 27423 ft 395 kts 319°
2026-04-26 20:55 36.20014 -121.14380 26865 ft 391 kts 319°
2026-04-26 20:55 36.22163 -121.16433 26300 ft 389 kts 319°
2026-04-26 20:55 36.24267 -121.18443 25763 ft 386 kts 319°
2026-04-26 20:56 36.26387 -121.20472 25221 ft 384 kts 319°
2026-04-26 20:56 36.28497 -121.22491 24673 ft 382 kts 319°
2026-04-26 20:56 36.30597 -121.24503 24145 ft 381 kts 319°
2026-04-26 20:56 36.32687 -121.26507 23602 ft 379 kts 319°
2026-04-26 20:57 36.34769 -121.28503 22977 ft 377 kts 319°
2026-04-26 20:57 36.36835 -121.30487 22409 ft 371 kts 319°
2026-04-26 20:57 36.38854 -121.32430 21881 ft 364 kts 319°
2026-04-26 20:57 36.40838 -121.34342 21358 ft 359 kts 319°
2026-04-26 20:58 36.42804 -121.36239 20848 ft 356 kts 319°
2026-04-26 20:58 36.44751 -121.38118 20341 ft 353 kts 319°
2026-04-26 20:58 36.46685 -121.39987 19845 ft 350 kts 319°
2026-04-26 20:58 36.48602 -121.41838 19370 ft 348 kts 319°
2026-04-26 20:59 36.50633 -121.43470 18864 ft 351 kts 333°
2026-04-26 20:59 36.52926 -121.44503 18420 ft 350 kts 337°
2026-04-26 20:59 36.55235 -121.45439 17879 ft 348 kts 338°
2026-04-26 20:59 36.57525 -121.46359 17371 ft 344 kts 338°
2026-04-26 21:00 36.59793 -121.47284 16879 ft 341 kts 338°
2026-04-26 21:00 36.62036 -121.48213 16417 ft 338 kts 338°
2026-04-26 21:00 36.64257 -121.49144 15958 ft 336 kts 338°
2026-04-26 21:00 36.66469 -121.50077 15509 ft 334 kts 338°
2026-04-26 21:01 36.68670 -121.51008 15068 ft 333 kts 338°
2026-04-26 21:01 36.70862 -121.51936 14616 ft 333 kts 338°
2026-04-26 21:01 36.73052 -121.52864 14163 ft 333 kts 338°
2026-04-26 21:01 36.75247 -121.53795 13700 ft 333 kts 339°
2026-04-26 21:02 36.77433 -121.54723 13206 ft 332 kts 339°
2026-04-26 21:02 36.79617 -121.55650 12739 ft 330 kts 339°
2026-04-26 21:02 36.81784 -121.56571 12284 ft 328 kts 339°
2026-04-26 21:02 36.83941 -121.57488 11839 ft 326 kts 338°
2026-04-26 21:03 36.86083 -121.58400 11395 ft 324 kts 339°
2026-04-26 21:03 36.88207 -121.59304 10965 ft 321 kts 339°
2026-04-26 21:03 36.90306 -121.60198 10524 ft 315 kts 339°
2026-04-26 21:03 36.92362 -121.61073 10115 ft 308 kts 339°
2026-04-26 21:04 36.94338 -121.61911 9928 ft 288 kts 338°
2026-04-26 21:04 36.96156 -121.62678 9773 ft 268 kts 338°
2026-04-26 21:04 36.97898 -121.63418 9203 ft 265 kts 339°
2026-04-26 21:04 36.99641 -121.64160 8602 ft 264 kts 338°
2026-04-26 21:05 37.01371 -121.64896 8223 ft 262 kts 338°
2026-04-26 21:05 37.03109 -121.65636 7850 ft 262 kts 338°
2026-04-26 21:05 37.04806 -121.66356 7513 ft 252 kts 338°
2026-04-26 21:05 37.06428 -121.67044 7146 ft 241 kts 338°
2026-04-26 21:06 37.08012 -121.67720 6824 ft 240 kts 338°
2026-04-26 21:06 37.09585 -121.68390 6515 ft 238 kts 339°
2026-04-26 21:06 37.11147 -121.69055 6159 ft 236 kts 339°
2026-04-26 21:06 37.12691 -121.69713 5819 ft 232 kts 338°
2026-04-26 21:07 37.14182 -121.70348 5494 ft 227 kts 339°
2026-04-26 21:07 37.15663 -121.70979 5177 ft 223 kts 337°
2026-04-26 21:07 37.17033 -121.71846 4888 ft 220 kts 320°
2026-04-26 21:07 37.18202 -121.73044 4629 ft 211 kts 315°
2026-04-26 21:08 37.19274 -121.74234 4358 ft 201 kts 315°
2026-04-26 21:08 37.20299 -121.75376 4098 ft 194 kts 314°
2026-04-26 21:08 37.21296 -121.76481 3852 ft 189 kts 314°
2026-04-26 21:08 37.22282 -121.77572 3586 ft 188 kts 316°
2026-04-26 21:09 37.23249 -121.78639 3315 ft 183 kts 315°
2026-04-26 21:09 37.24215 -121.79707 3051 ft 186 kts 316°
2026-04-26 21:09 37.25178 -121.80768 2838 ft 182 kts 315°
2026-04-26 21:09 37.26124 -121.81810 2589 ft 179 kts 315°
2026-04-26 21:10 37.27040 -121.82819 2366 ft 168 kts 316°
2026-04-26 21:10 37.27892 -121.83758 2135 ft 159 kts 314°
2026-04-26 21:10 37.28702 -121.84652 1934 ft 153 kts 314°
2026-04-26 21:10 37.29454 -121.85480 1729 ft 137 kts 315°
2026-04-26 21:11 37.30149 -121.86246 1508 ft 129 kts 316°
2026-04-26 21:11 37.30816 -121.86983 1366 ft 129 kts 317°
2026-04-26 21:11 37.31495 -121.87732 1173 ft 130 kts 317°
2026-04-26 21:11 37.32178 -121.88485 970 ft 131 kts 318°
2026-04-26 21:12 37.32857 -121.89233 805 ft 128 kts 317°
2026-04-26 21:12 37.33517 -121.89965 633 ft 126 kts 317°
2026-04-26 21:12 37.34162 -121.90677 462 ft 121 kts 318°
2026-04-26 21:12 37.34799 -121.91385 331 ft 124 kts 318°
2026-04-26 21:13 37.35442 -121.92082 158 ft 122 kts 318°
2026-04-26 21:13 37.36055 -121.92753 65 ft 106 kts 317°
2026-04-26 21:13 37.36477 -121.93216 54 ft 50 kts 319°
2026-04-26 21:13 37.36667 -121.93395 57 ft 25 kts 345°
2026-04-26 21:14 37.36775 -121.93348 59 ft 13 kts 43°
2026-04-26 21:14 37.36829 -121.93269 62 ft 12 kts 49°
2026-04-26 21:14 37.36872 -121.93187 61 ft 11 kts 91°
2026-04-26 21:14 37.36821 -121.93114 57 ft 11 kts 138°
2026-04-26 21:15 37.36764 -121.93050 61 ft 11 kts 139°
2026-04-26 21:15 37.36708 -121.92988 56 ft 11 kts 140°
2026-04-26 21:15 37.36653 -121.92929 56 ft 10 kts 139°
2026-04-26 21:15 37.36598 -121.92870 62 ft 11 kts 139°
2026-04-26 21:16 37.36533 -121.92798 58 ft 13 kts 138°
2026-04-26 21:16 37.36486 -121.92720 58 ft 11 kts 89°
2026-04-26 21:16 37.36495 -121.92662 59 ft 5 kts 123°
2026-04-26 21:16 37.36468 -121.92630 61 ft 6 kts 139°
2026-04-26 21:17 37.36435 -121.92593 56 ft 7 kts 135°
2026-04-26 21:17 37.36436 -121.92538 59 ft 7 kts 47°
2026-04-26 21:17 37.36458 -121.92506 55 ft 3 kts 49°
2026-04-26 21:17 37.36463 -121.92500 58 ft 0 kts 49°
2026-04-26 21:21 37.36463 -121.92499 58 ft 0 kts 49°